ROMMA est une association bénévole à but non lucratif. Votre soutien est indispensable : ADHERER à ROMMA ou FAIRE un DON

Saint-Léger-les-Mélèzes - (05, Hautes-Alpes)

Champsaur (1245 m)   Longitude: 6° 11' 42" E    Latitude: 44° 38' 38" N Station partenaire n°51
 

Détail journalier du     <<     >>

Température Humidité Vent Dir Rafale Dir. rafale Ensol.
Heure (°C) (%) (km/h) (km/h) (min)
01:00 2.4693S6S0
02:00 2.7692SSE8SSE0
03:00 2.5713SSE10SSE0
04:00 2.7672S8S0
05:00 2.7612ESE10S0
06:00 3.8572ESE8S0
07:00 3.4543S11E0
08:00 3.5582SSO6SSO0
09:00 4.1581ESE5SSO0
10:00 4.7593S6S0
11:00 5.5591SSO5SSO0
12:00 6.3541SSO5SSO0
13:00 4.9643SSO15OSO0
14:00 4.3712S13S0
15:00 3.0851E6ESE0
16:00 2.48905SE0
17:00 1.99105SO0
18:00 1.7932S13S0
19:00 2.3913S19SSE0
20:00 1.88211ONO35ONO0
21:00 0.6769O32NO0
22:00 0.5679O34ONO0
23:00 0.66814ONO47ONO0
minuit 0.27212ONO44O0

Graphique du 10-02-2019

 

Serveur OMMA